Regional Weather Roundup
Issued by NWS Columbia, SC

Home | Current Version | Previous Version | Text Only | Print | Product List | Glossary On
Versions: 1 2 3 4 5 6 7 8 9 10 11 12 13 14 15 16 17 18 19 20 21 22 23 24 25 26 27 28 29 30 31 32 33 34 35 36 37 38 39 40 41 42 43 44 45 46 47 48 49 50
000
ASUS42 KCAE 311610
RWRCAE
REGIONAL WEATHER ROUNDUP
NATIONAL WEATHER SERVICE COLUMBIA SC
1200 PM EDT THU JUL 31 2014

NOTE: "FAIR" INDICATES FEW OR NO CLOUDS BELOW 12,000 FEET WITH NO
SIGNIFICANT WEATHER AND/OR OBSTRUCTIONS TO VISIBILITY.

NOT ALL STATIONS ARE QUALITY CONTROLLED BY THE NATIONAL
WEATHER SERVICE. USE DATA WITH CAUTION...ESPECIALLY
DEWPOINT OBSERVATIONS.

SCZ001>056-GAZ040-063>065-077-311700-
...UPSTATE SOUTH CAROLINA...

CITY           SKY/WX    TMP DP  RH WIND       PRES   REMARKS
ANDERSON       LGT RAIN  70  67  90 NE9       30.12S
LIBERTY        CLOUDY    70  32  24 MISG      30.14F
SPARTANBURG    LGT RAIN  68  68 100 N6        30.15R
CLEMSON        CLOUDY    74  64  71 NE7       30.14S
GREENVILLE     LGT RAIN  68  65  90 N10       30.15S
GREENWOOD      CLOUDY    74  68  81 NW8       30.12S
GREER          LGT RAIN  66  65  96 N9        30.14S
ROCK HILL      CLOUDY    78  67  68 SE3       30.14R
CHESTER        FAIR      81  70  69 NE7       30.13S
LAURENS        LGT RAIN  73 N/A N/A NE7       30.13S


...CENTRAL SOUTH CAROLINA...

CITY           SKY/WX    TMP DP  RH WIND       PRES   REMARKS
COLUMBIA APT   CLOUDY    83  69  62 E12       30.07S
COLUMBIA OWENS CLOUDY    81  70  69 VRB5      30.09S
DARLINGTON     PTSUNNY   81  70  69 E8        30.12S
FLORENCE       CLOUDY    83  70  64 SE10      30.10R
MCENTIRE ANGB  PTSUNNY   82  71  69 E12G18    30.09S
ORANGEBURG     CLOUDY    79  71  76 E8        30.07S
SUMTER SHAW    PTSUNNY   82  72  69 E10       30.07S
NEWBERRY       PTSUNNY   79  72  78 E6        30.13S
AIKEN          PTSUNNY   81  73  78 E10       30.11R
BARNWELL       FAIR      81  73  78 E7        30.06S
MANNING        CLOUDY    79  79 100 E5        30.08S
CAMDEN         FAIR      79  68  69 E8        30.11S
LANCASTER      FAIR      82  68  61 E10       30.12S
WINNSBORO      FAIR      79  70  73 E9G16     30.10S


...EASTERN AND COASTAL SOUTH CAROLINA...

CITY           SKY/WX    TMP DP  RH WIND       PRES   REMARKS
MYRTLE BEACH   PTSUNNY   84  72  65 E18       30.09R
N MYRTLE BCH   PTSUNNY   83  70  64 E14       30.09S
CONWAY         FAIR      82  72  69 E7        30.09S
MARION         FAIR      82  70  65 E7        30.10S
HARTSVILLE     PTSUNNY   82  52  34 E8        30.12S
FLORENCE       CLOUDY    83  70  64 SE10      30.10R
DARLINGTON     PTSUNNY   81  70  69 E8        30.12S
CHARLESTON APT CLOUDY    81  73  76 NE10      30.05R
MOUNT PLEASANT FAIR      84  75  74 E8        30.05S
WALTERBORO     CLOUDY    79  79 100 E14G21    30.06S
BEAUFORT       PTSUNNY   81  76  84 E8        30.03S FOG


...EASTERN GEORGIA...

CITY           SKY/WX    TMP DP  RH WIND       PRES   REMARKS
AUGUSTA BUSH F CLOUDY    82  71  69 E9        30.05R
AUGUSTA DANIEL CLOUDY    82  70  66 E8        30.07R
THOMSON        CLOUDY    81  77  89 NE5       30.12R
WASHINGTON     CLOUDY    79  77  94 NE6       30.09S
CLAXTON        FAIR      82  77  83 CALM      30.02S
SYLVANIA       CLOUDY    76  74  93 NE5       30.05S
STATESBORO     CLOUDY    79  73  82 E7        30.03S
SAVANNAH       CLOUDY    87  71  58 SE12      30.00F


...SOUTHERN NORTH CAROLINA...

CITY           SKY/WX    TMP DP  RH WIND       PRES   REMARKS
CHARLOTTE      CLOUDY    78  66  66 E5        30.14S
MONROE         CLOUDY    79  65  62 E7        30.13R
WADESBORO      PTSUNNY   82  67  60 E3        30.12S
ROCKINGHAM       N/A     81  66  61 E7        30.12S
RUTHERFORDTON  RAIN      64  62  95 NW7       30.19R
ASHEVILLE      LGT RAIN  64  60  87 CALM      30.21R

$$


USA.gov is the U.S. government's official web portal to all federal, state and local government web resources and services.